Date String (YYYY-MM-DD hh:mm:ss) UTC,Instrument flags,Ambient pressure (hPa),Sample flow (lpm),Bypass flow (lpm),Sample temperature (°C),Ambient temperature (°C),ASC tube jacket temperature (°C),LED temperature (°C),Box temperature (°C),Sample RH (%),Span deviation,Mass concentration (μg/m³),Mass concentration (μg/m³),Mass concentration (μg/m³)
DateTimeUTC,F1_M11,P_M11,Q1_M11,Q2_M11,T1_M11,T2_M11,T3_M11,T4_M11,T5_M11,U1_M11,ZSPAN_M11,X0_M11,X2_M11,X1_M11
2022-09-18 18:00:00,,0827.2,5.00,0.00,30.0,28.4,00.0,38.6,31.8,26.3,0000.7,0011.74,0006.98,0006.34
2022-09-18 18:01:00,,0827.3,5.00,0.00,30.0,28.5,00.0,38.6,31.8,26.6,0000.2,0011.79,0006.98,0006.33
2022-09-18 18:02:00,,0827.2,5.00,0.00,30.0,28.7,00.0,38.7,31.9,26.2,0000.1,0011.80,0006.99,0006.33
2022-09-18 18:03:00,,0827.2,5.00,0.00,30.0,28.8,00.0,38.7,31.9,26.7,0000.2,0012.06,0006.98,0006.32
2022-09-18 18:04:00,,0827.1,5.01,0.00,30.1,28.9,00.0,38.7,32.0,26.6,0000.7,0012.11,0006.95,0006.32
2022-09-18 18:05:00,,0827.0,4.99,0.00,30.1,29.0,00.0,38.7,32.0,26.9,0000.6,0011.45,0006.93,0006.32
2022-09-18 18:06:00,,0827.0,5.01,0.00,30.2,28.4,00.0,38.7,32.0,26.7,0001.0,0011.24,0006.93,0006.34
2022-09-18 18:07:00,,0827.1,5.02,0.00,30.1,27.2,00.0,38.7,31.9,26.5,0000.8,0011.35,0006.94,0006.34
2022-09-18 18:08:00,,0827.1,5.00,0.00,30.1,26.7,00.0,38.7,31.8,26.4,0000.6,0012.15,0007.00,0006.35
2022-09-18 18:09:00,,0827.1,5.00,0.00,30.0,26.8,00.0,38.6,31.7,26.6,0000.0,0011.47,0007.02,0006.36
2022-09-18 18:10:00,,0827.1,5.00,0.00,29.9,27.1,00.0,38.6,31.6,26.9,0000.2,0011.50,0007.02,0006.37
2022-09-18 18:11:00,,0826.9,5.01,0.00,29.9,27.4,00.0,38.6,31.6,26.9,0000.0,0011.69,0007.02,0006.37
2022-09-18 18:12:00,,0827.0,5.00,0.00,29.9,27.7,00.0,38.6,31.7,26.5,0000.4,0011.87,0007.04,0006.40
2022-09-18 18:13:00,,0826.9,5.01,0.00,29.9,28.0,00.0,38.6,31.7,26.3,0000.7,0011.82,0007.03,0006.42
2022-09-18 18:14:00,,0827.0,5.00,0.00,29.9,28.2,00.0,38.6,31.7,26.3,0000.5,0011.59,0007.02,0006.42
2022-09-18 18:15:00,,0827.1,4.99,0.00,29.9,28.4,00.0,38.6,31.8,26.2,0000.2,0012.07,0007.00,0006.41
2022-09-18 18:16:00,,0827.0,5.01,0.00,30.0,28.6,00.0,38.6,31.8,26.1,0000.2,0012.34,0006.98,0006.39
2022-09-18 18:17:00,,0826.9,4.99,0.00,30.0,28.7,00.0,38.6,31.9,26.1,0000.0,0012.36,0006.97,0006.38
2022-09-18 18:18:00,,0826.9,5.00,0.00,30.0,28.8,00.0,38.6,31.9,26.2,0000.2,0012.17,0006.91,0006.34
2022-09-18 18:19:00,,0826.9,5.01,0.00,30.0,28.9,00.0,38.7,32.0,26.1,0000.2,0011.47,0006.87,0006.30
2022-09-18 18:20:00,,0826.9,5.00,0.00,30.1,29.0,00.0,38.7,32.0,25.7,0000.5,0011.72,0006.86,0006.28
2022-09-18 18:21:00,,0826.9,5.01,0.00,30.1,28.3,00.0,38.7,32.0,25.8,0000.8,0011.80,0006.85,0006.26
2022-09-18 18:22:00,,0826.8,5.00,0.00,30.1,27.1,00.0,38.7,31.9,25.5,0001.0,0011.80,0006.85,0006.25
2022-09-18 18:23:00,,0826.8,4.99,0.00,30.0,26.6,00.0,38.6,31.8,25.4,0000.8,0012.19,0006.82,0006.23
2022-09-18 18:24:00,,0826.8,4.99,0.00,29.9,26.7,00.0,38.6,31.6,25.4,0000.8,0012.71,0006.85,0006.21
2022-09-18 18:25:00,,0826.8,5.00,0.00,29.9,27.1,00.0,38.6,31.5,25.5,0001.3,0012.80,0006.84,0006.19
2022-09-18 18:26:00,,0826.8,5.01,0.00,29.8,27.4,00.0,38.5,31.6,25.8,0001.4,0012.90,0006.85,0006.18
2022-09-18 18:27:00,,0826.9,5.01,0.00,29.8,27.7,00.0,38.5,31.6,25.7,0001.7,0012.84,0006.82,0006.16
2022-09-18 18:28:00,,0826.8,4.99,0.00,29.8,28.0,00.0,38.5,31.6,25.6,0001.8,0013.24,0006.78,0006.14
2022-09-18 18:29:00,,0826.8,5.01,0.00,29.9,28.2,00.0,38.5,31.7,25.4,0001.8,0013.39,0006.77,0006.13
2022-09-18 18:30:00,,0826.8,4.99,0.00,29.9,28.4,00.0,38.5,31.7,25.7,0001.8,0013.36,0006.75,0006.11
2022-09-18 18:31:00,,0827.0,5.01,0.00,29.9,28.5,00.0,38.5,31.8,25.6,0001.4,0013.06,0006.71,0006.08
2022-09-18 18:32:00,,0826.9,4.99,0.00,29.9,28.7,00.0,38.6,31.9,25.6,0001.0,0012.97,0006.73,0006.08
2022-09-18 18:33:00,,0826.9,5.01,0.00,30.0,28.8,00.0,38.6,31.9,25.3,0001.2,0012.76,0006.73,0006.07
2022-09-18 18:34:00,,0826.8,5.00,0.00,30.0,28.9,00.0,38.6,32.0,25.3,0001.2,0012.11,0006.73,0006.07
2022-09-18 18:35:00,,0826.8,5.00,0.00,30.0,28.7,00.0,38.6,32.0,25.1,0000.9,0011.66,0006.67,0006.06
2022-09-18 18:36:00,,0826.8,5.00,0.00,30.0,27.5,00.0,38.6,31.9,25.1,0000.5,0011.58,0006.67,0006.07
2022-09-18 18:37:00,,0826.7,5.00,0.00,30.0,26.6,00.0,38.6,31.8,25.3,0000.4,0011.65,0006.66,0006.07
2022-09-18 18:38:00,,0826.7,5.01,0.00,30.0,26.7,00.0,38.5,31.7,25.4,0000.3,0011.58,0006.65,0006.07
2022-09-18 18:39:00,,0826.7,5.00,0.00,29.9,27.0,00.0,38.5,31.5,25.6,0000.3,0011.21,0006.64,0006.06
2022-09-18 18:40:00,,0826.7,4.99,0.00,29.8,27.3,00.0,38.5,31.5,25.3,0000.3,0011.15,0006.63,0006.05
2022-09-18 18:41:00,,0826.8,5.00,0.00,29.8,27.6,00.0,38.5,31.5,25.4,-000.2,0011.21,0006.64,0006.05
2022-09-18 18:42:00,,0826.7,5.01,0.00,29.8,27.9,00.0,38.5,31.6,25.4,-000.6,0011.20,0006.65,0006.05
2022-09-18 18:43:00,,0826.7,4.99,0.00,29.8,28.1,00.0,38.5,31.7,25.4,-000.5,0011.09,0006.61,0006.04
2022-09-18 18:44:00,,0826.7,5.00,0.00,29.8,28.4,00.0,38.5,31.7,25.4,-000.8,0011.73,0006.58,0006.03
2022-09-18 18:45:00,,0826.7,4.99,0.00,29.9,28.5,00.0,38.5,31.7,25.4,-000.6,0011.77,0006.57,0006.02
2022-09-18 18:46:00,,0826.7,5.01,0.00,29.9,28.6,00.0,38.5,31.7,25.3,-000.5,0011.75,0006.62,0006.02
2022-09-18 18:47:00,,0826.7,5.00,0.00,29.9,28.7,00.0,38.5,31.8,25.5,0000.1,0011.76,0006.65,0006.01
2022-09-18 18:48:00,,0826.7,4.99,0.00,30.0,28.9,00.0,38.6,31.9,25.5,0000.4,0010.91,0006.61,0005.99
2022-09-18 18:49:00,,0826.6,5.00,0.00,30.0,29.0,00.0,38.6,32.0,25.1,0000.2,0010.65,0006.61,0005.97
2022-09-18 18:50:00,,0826.7,5.00,0.00,30.1,28.7,00.0,38.6,32.0,24.8,0000.0,0011.20,0006.60,0005.98
2022-09-18 18:51:00,,0826.7,5.00,0.00,30.0,27.5,00.0,38.6,31.9,24.6,-000.0,0011.81,0006.63,0005.99
2022-09-18 18:52:00,,0826.7,5.00,0.00,30.0,26.6,00.0,38.6,31.7,24.7,0000.4,0011.71,0006.62,0006.00
2022-09-18 18:53:00,,0826.7,5.00,0.00,29.9,26.7,00.0,38.5,31.7,24.5,0001.1,0011.83,0006.62,0005.99
2022-09-18 18:54:00,,0826.7,5.00,0.00,29.9,26.9,00.0,38.5,31.6,24.8,0000.2,0011.81,0006.59,0005.97
2022-09-18 18:55:00,,0826.7,5.01,0.00,29.8,27.3,00.0,38.5,31.5,25.2,0000.0,0011.17,0006.54,0005.95
2022-09-18 18:56:00,,0826.7,5.00,0.00,29.8,27.6,00.0,38.5,31.5,25.6,0000.0,0011.47,0006.53,0005.92
2022-09-18 18:57:00,,0826.6,4.99,0.00,29.8,27.9,00.0,38.5,31.6,25.9,0000.0,0011.74,0006.50,0005.91
2022-09-18 18:58:00,,0826.7,5.01,0.00,29.8,28.2,00.0,38.5,31.7,25.6,0000.0,0011.82,0006.48,0005.90
2022-09-18 18:59:00,,0826.7,4.98,0.00,29.8,28.3,00.0,38.5,31.7,25.6,0000.0,0012.17,0006.51,0005.91
